Home > Weather > Herrenberg > Past weeks

Flag for Germany Past Weather in Herrenberg, Baden-Württemberg, Germany — Yesterday and Last 2 Weeks

Now
73 °F

Sunny.


Feels Like: 77 °F
Forecast: 53 / 74 °F
Wind: 15 mph from Northwest

Location: Stuttgart-Echterdingen

Current Time: Aug 29, 2016 at 8:04:28 PM

Latest Report: Aug 29, 2016 at 7:20 PM


Visibility: 10 mi

Pressure: 30.12 "Hg

Humidity: 41%

Dew Point: 48 °F

Location of HerrenbergLocation

Past Weather in Herrenberg — Graph

°F

Herrenberg Temperature Yesterday

Maximum temperature yesterday: 91 °F (at 2:20 PM)
Minimum temperature yesterday: 68 °F (at 3:20 AM)
Average temperature yesterday: 79 °F

High & Low Weather Summary for the Past Weeks

 TemperatureHumidityPressure
High91 °F (Aug 27, 2:50 PM)100% (Aug 19, 1:50 AM)30.42 "Hg (Aug 19, 1:50 AM)
Low54 °F (Aug 22, 1:50 AM)26% (Aug 27, 6:20 PM)29.83 "Hg (Aug 18, 5:20 AM)
Average70 °F67%30.09 "Hg
* Reported Aug 14 6:20 PM — Aug 29 6:50 PM, Herrenberg, Weather by CustomWeather, © 2016

Note: Actual official high and low records may vary slightly from our data, if they occured in-between our weather recording intervals... More about our weather records

Advertising

Herrenberg Weather History for the Previous 24 Hours

Scroll right to see more
 ConditionsComfort  
Time TempWeatherWind HumidityBarometerVisibility
6:50 PM
Mon, Aug 29
73 °FSunny.13 mph44%30.12 "Hg10 mi
6:20 PM75 °FPassing clouds.12 mph44%30.12 "HgN/A
5:50 PM75 °FPassing clouds.12 mph44%30.09 "HgN/A
5:20 PM75 °FPassing clouds.13 mph47%30.09 "HgN/A
4:50 PM75 °FSunny.10 mph44%30.09 "Hg10 mi
4:20 PM75 °FPassing clouds.9 mph47%30.09 "HgN/A
3:50 PM75 °FPassing clouds.12 mph47%30.09 "HgN/A
3:20 PM75 °FPassing clouds.6 mph50%30.09 "HgN/A
2:50 PM75 °FPassing clouds.7 mph47%30.09 "HgN/A
2:20 PM75 °FPassing clouds.3 mph50%30.12 "HgN/A
1:50 PM75 °FScattered clouds.9 mph50%30.12 "HgN/A
1:20 PM75 °FScattered clouds.12 mph54%30.12 "HgN/A
12:50 PM75 °FScattered clouds.7 mph54%30.12 "HgN/A
12:20 PM75 °FScattered clouds.7 mph54%30.12 "HgN/A
11:50 AM73 °FScattered clouds.6 mph61%30.12 "HgN/A
11:20 AM73 °FBroken clouds.7 mph61%30.12 "HgN/A
10:50 AM73 °FBroken clouds.7 mph61%30.12 "HgN/A
10:20 AM72 °FBroken clouds.7 mph65%30.12 "HgN/A
9:50 AM72 °FBroken clouds.6 mph65%30.12 "HgN/A
9:20 AM72 °FPassing clouds.9 mph65%30.09 "HgN/A
8:50 AM70 °FPassing clouds.6 mph69%30.09 "HgN/A
8:20 AM70 °FPassing clouds.5 mph69%30.09 "HgN/A
7:50 AM68 °FSunny.8 mph73%30.09 "Hg10 mi
7:20 AM66 °FPassing clouds.6 mph78%30.09 "HgN/A
6:50 AM66 °FClear.6 mph78%30.09 "Hg10 mi
6:20 AM68 °FClear.2 mph73%30.09 "Hg10 mi
5:50 AM68 °FClear.5 mph73%30.09 "Hg10 mi
5:20 AM68 °FPassing clouds.3 mph73%30.09 "HgN/A
4:50 AM70 °FPassing clouds.5 mph69%30.09 "HgN/A
4:20 AM70 °FPartly cloudy.5 mph69%30.09 "HgN/A
3:50 AM70 °FScattered showers. Passing clouds.2 mph69%30.09 "HgN/A
3:20 AM70 °FScattered showers. Partly cloudy.3 mph69%30.09 "HgN/A
2:50 AM72 °FPartly cloudy.2 mph65%30.09 "HgN/A
2:20 AM72 °FScattered showers. Partly cloudy.3 mph65%30.07 "HgN/A
1:50 AM72 °FLight rain. Partly cloudy.5 mph69%30.09 "HgN/A
1:20 AM72 °FClear.9 mph69%30.07 "Hg10 mi
12:50 AM72 °FClear.8 mph69%30.07 "Hg10 mi
12:20 AM72 °FPassing clouds.5 mph69%30.07 "HgN/A
11:50 PM
Sun, Aug 28
73 °FClear.9 mph65%30.07 "Hg10 mi
11:20 PM75 °FClear.7 mph61%30.07 "Hg10 mi
10:50 PM77 °FPassing clouds.3 mph57%30.07 "HgN/A
10:20 PM77 °FClear.7 mph57%30.04 "Hg10 mi
9:50 PM77 °FClear.8 mph57%30.04 "Hg10 mi
9:20 PM79 °FClear.9 mph54%30.04 "Hg10 mi
8:50 PM81 °FSunny.9 mph48%30.01 "Hg10 mi
8:20 PM81 °FSunny.14 mph48%30.01 "Hg10 mi
Weather by CustomWeather, © 2016

See weather overviewHow to use our weather pages